Time,TemperatureF,DewpointF,PressureIn,WindDirection,WindDirectionDegrees,WindSpeedMPH,WindSpeedGustMPH,Humidity,HourlyPrecipIn,Conditions,Clouds,dailyrainin,SoftwareType,DateUTC
2013-05-23 00:23:00,73.2,71.0,29.93,ESE,109,0.0,1.0,94,0.00,,,0.00,weatherlink.com 1.10,2013-05-23 05:23:00,
2013-05-23 00:38:00,73.3,71.0,29.93,ESE,109,0.0,1.0,93,0.00,,,0.00,weatherlink.com 1.10,2013-05-23 05:38:00,
2013-05-23 00:53:00,73.2,71.0,29.93,ESE,107,0.0,2.0,94,0.00,,,0.00,weatherlink.com 1.10,2013-05-23 05:53:00,
2013-05-23 01:08:00,72.9,71.0,29.92,ESE,107,0.0,1.0,94,0.00,,,0.00,weatherlink.com 1.10,2013-05-23 06:08:00,
2013-05-23 01:23:00,72.8,71.0,29.93,ESE,120,0.0,2.0,95,0.00,,,0.00,weatherlink.com 1.10,2013-05-23 06:23:00,
2013-05-23 01:38:00,73.1,72.0,29.93,SE,136,1.0,2.0,95,0.00,,,0.00,weatherlink.com 1.10,2013-05-23 06:38:00,
2013-05-23 01:53:00,73.2,72.0,29.92,SE,136,0.0,2.0,96,0.00,,,0.00,weatherlink.com 1.10,2013-05-23 06:53:00,
2013-05-23 02:08:00,73.2,72.0,29.92,SE,134,0.0,2.0,96,0.00,,,0.00,weatherlink.com 1.10,2013-05-23 07:08:00,
2013-05-23 02:23:00,72.8,71.0,29.92,SE,134,0.0,0.0,95,0.00,,,0.00,weatherlink.com 1.10,2013-05-23 07:23:00,
2013-05-23 02:38:00,72.4,71.0,29.92,SE,134,1.0,1.0,96,0.00,,,0.00,weatherlink.com 1.10,2013-05-23 07:38:00,
2013-05-23 02:53:00,72.3,71.0,29.92,SE,134,0.0,1.0,96,0.00,,,0.00,weatherlink.com 1.10,2013-05-23 07:53:00,
2013-05-23 03:08:00,72.3,71.0,29.92,SE,134,0.0,1.0,97,0.00,,,0.00,weatherlink.com 1.10,2013-05-23 08:08:00,
2013-05-23 03:23:00,72.0,71.0,29.92,SE,134,0.0,0.0,97,0.00,,,0.00,weatherlink.com 1.10,2013-05-23 08:23:00,
2013-05-23 03:38:00,71.8,71.0,29.92,SE,134,0.0,0.0,97,0.00,,,0.00,weatherlink.com 1.10,2013-05-23 08:38:00,
2013-05-23 03:53:00,71.6,71.0,29.92,SE,134,0.0,0.0,97,0.00,,,0.00,weatherlink.com 1.10,2013-05-23 08:53:00,
2013-05-23 04:08:00,71.4,71.0,29.93,SE,134,0.0,0.0,97,0.00,,,0.00,weatherlink.com 1.10,2013-05-23 09:08:00,
2013-05-23 04:23:00,71.4,71.0,29.93,SE,134,0.0,0.0,97,0.00,,,0.00,weatherlink.com 1.10,2013-05-23 09:23:00,
2013-05-23 04:38:00,71.3,71.0,29.93,SE,134,0.0,1.0,98,0.00,,,0.00,weatherlink.com 1.10,2013-05-23 09:38:00,
2013-05-23 04:53:00,71.3,71.0,29.93,SE,134,0.0,1.0,98,0.00,,,0.00,weatherlink.com 1.10,2013-05-23 09:53:00,
2013-05-23 05:08:00,71.3,71.0,29.94,SE,134,0.0,0.0,98,0.00,,,0.00,weatherlink.com 1.10,2013-05-23 10:08:00,
2013-05-23 05:23:00,71.1,71.0,29.94,SE,134,0.0,0.0,98,0.00,,,0.00,weatherlink.com 1.10,2013-05-23 10:23:00,
2013-05-23 05:38:00,70.7,70.0,29.94,SE,134,0.0,0.0,98,0.00,,,0.00,weatherlink.com 1.10,2013-05-23 10:38:00,
2013-05-23 05:53:00,70.5,70.0,29.94,SE,134,0.0,0.0,98,0.00,,,0.00,weatherlink.com 1.10,2013-05-23 10:53:00,
2013-05-23 06:08:00,70.4,70.0,29.95,SE,134,0.0,0.0,98,0.00,,,0.00,weatherlink.com 1.10,2013-05-23 11:08:00,
2013-05-23 06:23:00,70.3,70.0,29.95,SE,134,0.0,0.0,98,0.00,,,0.00,weatherlink.com 1.10,2013-05-23 11:23:00,
2013-05-23 06:38:00,70.5,70.0,29.96,SE,134,0.0,0.0,99,0.00,,,0.00,weatherlink.com 1.10,2013-05-23 11:38:00,
2013-05-23 06:53:00,70.9,71.0,29.96,SE,134,0.0,0.0,99,0.00,,,0.00,weatherlink.com 1.10,2013-05-23 11:53:00,
2013-05-23 07:08:00,72.3,72.0,29.96,SE,134,1.0,2.0,99,0.00,,,0.00,weatherlink.com 1.10,2013-05-23 12:08:00,
2013-05-23 07:23:00,73.3,73.0,29.97,SE,130,0.0,3.0,99,0.00,,,0.00,weatherlink.com 1.10,2013-05-23 12:23:00,
2013-05-23 07:38:00,74.0,74.0,29.97,South,172,1.0,5.0,99,0.00,,,0.00,weatherlink.com 1.10,2013-05-23 12:38:00,
2013-05-23 07:53:00,74.6,74.0,29.98,SSE,161,2.0,4.0,99,0.00,,,0.00,weatherlink.com 1.10,2013-05-23 12:53:00,
2013-05-23 08:08:00,75.0,75.0,29.98,SE,126,3.0,5.0,99,0.00,,,0.00,weatherlink.com 1.10,2013-05-23 13:08:00,
2013-05-23 08:23:00,75.5,75.0,29.99,SSE,163,3.0,6.0,99,0.00,,,0.00,weatherlink.com 1.10,2013-05-23 13:23:00,
2013-05-23 08:38:00,76.2,76.0,29.99,SSE,165,2.0,5.0,99,0.00,,,0.00,weatherlink.com 1.10,2013-05-23 13:38:00,
2013-05-23 08:53:00,76.7,76.0,29.99,SSE,161,2.0,7.0,98,0.00,,,0.00,weatherlink.com 1.10,2013-05-23 13:53:00,
2013-05-23 09:08:00,78.2,77.0,29.99,South,184,4.0,8.0,96,0.00,,,0.00,weatherlink.com 1.10,2013-05-23 14:08:00,
2013-05-23 09:24:00,78.7,77.0,30.00,South,182,3.0,7.0,93,0.00,,,0.00,weatherlink.com 1.10,2013-05-23 14:24:00,
2013-05-23 09:39:00,79.2,77.0,29.99,SSE,158,2.0,6.0,93,0.00,,,0.00,weatherlink.com 1.10,2013-05-23 14:39:00,
2013-05-23 09:54:00,80.7,78.0,29.99,SE,139,3.0,6.0,92,0.00,,,0.00,weatherlink.com 1.10,2013-05-23 14:54:00,
2013-05-23 10:09:00,81.4,78.0,29.99,South,178,2.0,7.0,89,0.00,,,0.00,weatherlink.com 1.10,2013-05-23 15:09:00,
2013-05-23 10:24:00,81.2,77.0,29.99,SE,136,4.0,7.0,88,0.00,,,0.00,weatherlink.com 1.10,2013-05-23 15:24:00,
2013-05-23 10:39:00,80.9,77.0,30.00,South,186,3.0,6.0,87,0.00,,,0.00,weatherlink.com 1.10,2013-05-23 15:39:00,
2013-05-23 10:54:00,81.6,77.0,30.00,South,184,2.0,5.0,86,0.00,,,0.00,weatherlink.com 1.10,2013-05-23 15:54:00,
2013-05-23 11:09:00,83.1,77.0,30.00,South,184,0.0,7.0,82,0.00,,,0.00,weatherlink.com 1.10,2013-05-23 16:09:00,
2013-05-23 11:24:00,83.3,77.0,30.00,South,169,0.0,5.0,81,0.00,,,0.00,weatherlink.com 1.10,2013-05-23 16:24:00,
2013-05-23 11:39:00,84.3,78.0,30.01,South,169,0.0,4.0,80,0.00,,,0.00,weatherlink.com 1.10,2013-05-23 16:39:00,
2013-05-23 11:54:00,85.6,78.0,30.01,South,188,4.0,5.0,78,0.00,,,0.00,weatherlink.com 1.10,2013-05-23 16:54:00,
2013-05-23 12:09:00,85.2,77.0,30.01,SSE,167,4.0,8.0,75,0.00,,,0.00,weatherlink.com 1.10,2013-05-23 17:09:00,
2013-05-23 12:24:00,85.6,77.0,30.01,SSE,161,5.0,9.0,76,0.00,,,0.00,weatherlink.com 1.10,2013-05-23 17:24:00,
2013-05-23 12:39:00,85.1,76.0,30.01,SSE,149,3.0,8.0,75,0.00,,,0.00,weatherlink.com 1.10,2013-05-23 17:39:00,
2013-05-23 12:54:00,85.1,77.0,30.00,SW,222,1.0,7.0,77,0.00,,,0.00,weatherlink.com 1.10,2013-05-23 17:54:00,
2013-05-23 13:09:00,86.1,78.0,30.00,SSW,199,1.0,3.0,77,0.00,,,0.00,weatherlink.com 1.10,2013-05-23 18:09:00,
2013-05-23 13:24:00,87.0,78.0,30.00,SW,226,5.0,8.0,74,0.00,,,0.00,weatherlink.com 1.10,2013-05-23 18:24:00,
2013-05-23 13:39:00,87.8,79.0,30.00,WSW,238,0.0,7.0,75,0.00,,,0.00,weatherlink.com 1.10,2013-05-23 18:39:00,
2013-05-23 13:54:00,87.9,77.0,30.00,SSE,167,2.0,8.0,69,0.00,,,0.00,weatherlink.com 1.10,2013-05-23 18:54:00,
2013-05-23 14:09:00,88.6,77.0,29.99,SSW,202,2.0,6.0,69,0.00,,,0.00,weatherlink.com 1.10,2013-05-23 19:09:00,
2013-05-23 14:24:00,88.1,77.0,29.99,SSE,155,7.0,7.0,70,0.00,,,0.00,weatherlink.com 1.10,2013-05-23 19:24:00,
2013-05-23 14:39:00,87.2,75.0,29.98,South,178,0.0,7.0,68,0.00,,,0.00,weatherlink.com 1.10,2013-05-23 19:39:00,
2013-05-23 14:54:00,87.6,76.0,29.98,SSE,155,7.0,7.0,69,0.00,,,0.00,weatherlink.com 1.10,2013-05-23 19:54:00,
2013-05-23 15:09:00,87.6,77.0,29.98,SW,214,2.0,9.0,70,0.00,,,0.00,weatherlink.com 1.10,2013-05-23 20:09:00,
2013-05-23 15:24:00,86.7,76.0,29.97,SE,134,2.0,5.0,70,0.00,,,0.00,weatherlink.com 1.10,2013-05-23 20:24:00,
2013-05-23 15:39:00,87.9,77.0,29.96,SW,215,5.0,7.0,70,0.00,,,0.00,weatherlink.com 1.10,2013-05-23 20:39:00,
2013-05-23 15:54:00,87.1,77.0,29.96,SSE,162,2.0,9.0,71,0.00,,,0.00,weatherlink.com 1.10,2013-05-23 20:54:00,
2013-05-23 16:09:00,88.2,77.0,29.96,SW,232,4.0,8.0,70,0.00,,,0.00,weatherlink.com 1.10,2013-05-23 21:09:00,
2013-05-23 16:24:00,86.3,76.0,29.96,South,173,3.0,7.0,71,0.00,,,0.00,weatherlink.com 1.10,2013-05-23 21:24:00,
2013-05-23 16:39:00,87.7,77.0,29.95,SW,229,4.0,9.0,71,0.00,,,0.00,weatherlink.com 1.10,2013-05-23 21:39:00,
2013-05-23 16:54:00,85.7,77.0,29.94,SW,232,3.0,9.0,74,0.00,,,0.00,weatherlink.com 1.10,2013-05-23 21:54:00,
2013-05-23 17:09:00,85.9,77.0,29.94,SW,234,3.0,7.0,74,0.00,,,0.00,weatherlink.com 1.10,2013-05-23 22:09:00,
2013-05-23 17:24:00,85.3,77.0,29.94,SE,133,1.0,7.0,76,0.00,,,0.00,weatherlink.com 1.10,2013-05-23 22:24:00,
2013-05-23 17:39:00,86.2,77.0,29.94,South,170,4.0,8.0,75,0.00,,,0.00,weatherlink.com 1.10,2013-05-23 22:39:00,
2013-05-23 17:54:00,86.4,78.0,29.95,SSE,166,4.0,7.0,75,0.00,,,0.00,weatherlink.com 1.10,2013-05-23 22:54:00,
2013-05-23 18:09:00,85.2,77.0,29.95,SW,234,2.0,6.0,77,0.00,,,0.00,weatherlink.com 1.10,2013-05-23 23:09:00,
2013-05-23 18:24:00,85.1,76.0,29.94,WSW,242,5.0,11.0,74,0.00,,,0.00,weatherlink.com 1.10,2013-05-23 23:24:00,
2013-05-23 18:39:00,84.2,76.0,29.96,SW,234,3.0,8.0,76,0.00,,,0.00,weatherlink.com 1.10,2013-05-23 23:39:00,
2013-05-23 18:54:00,82.2,69.0,29.98,NNW,339,4.0,6.0,65,0.00,,,0.00,weatherlink.com 1.10,2013-05-23 23:54:00,
2013-05-23 19:09:00,76.6,66.0,29.99,NNE,21,6.0,15.0,69,0.00,,,0.00,weatherlink.com 1.10,2013-05-24 00:09:00,
2013-05-23 19:24:00,72.5,65.0,29.99,NE,42,10.0,19.0,77,0.01,,,0.01,weatherlink.com 1.10,2013-05-24 00:24:00,
2013-05-23 19:39:00,68.2,64.0,30.00,ESE,103,12.0,14.0,87,0.17,,,0.17,weatherlink.com 1.10,2013-05-24 00:39:00,
2013-05-23 19:55:00,67.6,64.0,30.01,ENE,71,2.0,10.0,89,0.28,,,0.28,weatherlink.com 1.10,2013-05-24 00:55:00,
2013-05-23 20:10:00,67.6,65.0,30.02,East,92,0.0,3.0,91,0.29,,,0.29,weatherlink.com 1.10,2013-05-24 01:10:00,
2013-05-23 20:25:00,67.4,65.0,29.99,ENE,57,2.0,5.0,91,0.30,,,0.31,weatherlink.com 1.10,2013-05-24 01:25:00,
2013-05-23 20:40:00,68.1,65.0,29.98,East,91,1.0,2.0,90,0.12,,,0.31,weatherlink.com 1.10,2013-05-24 01:40:00,
2013-05-23 20:55:00,68.3,66.0,29.96,East,85,0.0,2.0,92,0.03,,,0.31,weatherlink.com 1.10,2013-05-24 01:55:00,
2013-05-23 21:10:00,68.2,66.0,29.98,East,92,1.0,3.0,93,0.02,,,0.31,weatherlink.com 1.10,2013-05-24 02:10:00,
2013-05-23 21:25:00,68.4,66.0,29.98,South,176,0.0,3.0,92,0.00,,,0.31,weatherlink.com 1.10,2013-05-24 02:25:00,
2013-05-23 21:40:00,68.6,67.0,30.00,SSW,207,0.0,0.0,93,0.00,,,0.31,weatherlink.com 1.10,2013-05-24 02:40:00,
2013-05-23 21:55:00,68.3,66.0,30.00,SSW,207,0.0,0.0,93,0.00,,,0.31,weatherlink.com 1.10,2013-05-24 02:55:00,
2013-05-23 22:10:00,67.9,66.0,30.02,SE,126,1.0,2.0,94,0.00,,,0.31,weatherlink.com 1.10,2013-05-24 03:10:00,
2013-05-23 22:25:00,67.8,66.0,30.04,ENE,67,1.0,4.0,95,0.00,,,0.31,weatherlink.com 1.10,2013-05-24 03:25:00,
2013-05-23 22:40:00,67.9,66.0,30.03,ENE,70,0.0,1.0,94,0.00,,,0.31,weatherlink.com 1.10,2013-05-24 03:40:00,
2013-05-23 22:55:00,67.9,67.0,30.03,ENE,70,0.0,0.0,95,0.00,,,0.31,weatherlink.com 1.10,2013-05-24 03:55:00,
2013-05-23 23:10:00,67.6,66.0,30.02,SE,134,0.0,0.0,95,0.00,,,0.31,weatherlink.com 1.10,2013-05-24 04:10:00,
2013-05-23 23:25:00,67.6,67.0,30.01,WSW,254,1.0,3.0,96,0.00,,,0.31,weatherlink.com 1.10,2013-05-24 04:25:00,
2013-05-23 23:40:00,67.5,66.0,30.02,WSW,254,1.0,2.0,96,0.00,,,0.31,weatherlink.com 1.10,2013-05-24 04:40:00,
2013-05-23 23:55:00,67.3,66.0,30.01,WSW,254,1.0,1.0,96,0.00,,,0.31,weatherlink.com 1.10,2013-05-24 04:55:00,